Regional Weather Roundup
Issued by NWS

Home | Current Version | Previous Version | Graphics & Text | Print | Product List | Glossary On
Versions: 1 2 3 4 5 6 7 8 9 10 11 12 13 14 15 16 17 18 19 20 21 22 23 24 25 26 27 28 29 30 31 32 33 34 35 36 37 38 39 40 41 42 43 44 45 46 47 48 49 50
000
ASUS43 KOAX 312202
RWRNE

WEATHER ROUNDUP FOR NEBRASKA
NATIONAL WEATHER SERVICE OMAHA NE
500 PM CDT THU JUL 31 2014

NOTES: SATELLITE DATA IS BEING USED TO AUGMENT CLOUD COVER ABOVE
       12000 FEET.
       "FAIR" INDICATES FEW OR NO CLOUDS BELOW 12,000 FEET WITH NO
       SIGNIFICANT WEATHER AND/OR OBSTRUCTIONS TO VISIBILITY.

  * THESE STATIONS DO NOT REPORT WEATHER SUCH AS RAIN...SNOW OR FOG.

NEZ001>004-019>022-054>056-312300-
NEBRASKA PANHANDLE

CITY           SKY/WX    TMP DP  RH WIND       PRES   REMARKS
SCOTTSBLUFF    SUNNY     87  41  19 N6        30.17F
ALLIANCE       MOSUNNY   87  42  20 NE9       30.16F
CHADRON        SUNNY     86  46  24 VRB5G18   30.12F
KIMBALL        MOSUNNY   79  41  25 CALM      30.21F
SIDNEY         MOSUNNY   87  41  19 N10       30.19F
$$

NEZ057>060-069>072-079>082-312300-
SOUTHWEST NEBRASKA

CITY           SKY/WX    TMP DP  RH WIND       PRES   REMARKS
NORTH PLATTE   MOSUNNY   88  49  25 N12G17    30.07F
IMPERIAL       SUNNY     85  50  29 VRB7      30.12F
LEXINGTON      MOSUNNY   89  53  29 NW12G17   30.05F
MCCOOK         MOSUNNY   89  49  25 W9        30.07F
OGALLALA       MOSUNNY   87  43  21 NE6G16    30.11F
$$

NEZ005>010-023>029-035>040-094-312300-
NORTH CENTRAL NEBRASKA

CITY           SKY/WX    TMP DP  RH WIND       PRES   REMARKS
VALENTINE      SUNNY     87  50  27 N8        30.09F
AINSWORTH      MOSUNNY   84  50  29 N13G18    30.09S
BROKEN BOW     MOSUNNY   87  56  34 N17       30.05F
O`NEILL        SUNNY     83  64  51 NE15      30.05S
ORD            SUNNY     88  53  30 NW13      30.01S
THEDFORD       SUNNY     87  51  28 N9        30.10F
$$

NEZ041-046>049-061>064-073>077-083>087-312300-
SOUTH CENTRAL NEBRASKA

CITY           SKY/WX    TMP DP  RH WIND       PRES   REMARKS
GRAND ISLAND   MOSUNNY   88  57  34 SW14      30.01F
AURORA         MOSUNNY   85  62  46 SW10G16   30.01F
HASTINGS       PTSUNNY   83  56  39 S6        30.02F
HEBRON         MOSUNNY   85  49  28 S6        30.03S
HOLDREGE       MOSUNNY   88  53  29 W12       30.04F
KEARNEY *      MOSUNNY   90  57  33 W9        30.02F
YORK           MOSUNNY   86  64  48 S15       30.01F
$$

NEZ011>018-030>034-042>045-312300-
NORTHEAST NEBRASKA

CITY           SKY/WX    TMP DP  RH WIND       PRES   REMARKS
NORFOLK        CLOUDY    81  61  50 SE14      30.01F
ALBION         PTSUNNY   85  62  45 E13       29.99F
BLAIR          CLOUDY    80  58  47 NE9       30.04S
COLUMBUS *     PTSUNNY   63  63 100 S10       30.02F
FREMONT        PTSUNNY   86  56  35 S8        30.03S
TEKAMAH        SUNNY     83  59  44 E12       30.03F
WAYNE          MOSUNNY   80  65  61 E15       30.05S
$$

NEZ050>053-065>068-078-088>093-312300-
SOUTHEAST NEBRASKA

CITY           SKY/WX    TMP DP  RH WIND       PRES   REMARKS
LINCOLN        PTSUNNY   83  56  39 S9        30.02F
OMAHA EPPLEY   PTSUNNY   83  56  39 SE10      30.03F
BEATRICE       MOSUNNY   86  57  37 S6        30.02F
FALLS CITY     SUNNY     86  55  34 S8        30.04F
NEBRASKA CITY  SUNNY     83  52  34 S8        30.03F
PLATTSMOUTH    SUNNY     85  52  31 SE5       30.04S
$$

NEZ044-045-051>053-067-312300-
OMAHA AREA

CITY           SKY/WX    TMP DP  RH WIND       PRES   REMARKS
OMAHA EPPLEY   PTSUNNY   83  56  39 SE10      30.03F
BLAIR          CLOUDY    80  58  47 NE9       30.04S
FREMONT        PTSUNNY   86  56  35 S8        30.03S
MILLARD        MOSUNNY   85  57  38 S6        30.02F
OFFUTT AFB     MOSUNNY   86  59  39 SE10      30.02F
PLATTSMOUTH    SUNNY     85  52  31 SE5       30.04S
WAHOO          CLOUDY    85  57  37 S6        30.02S
$$



USA.gov is the U.S. government's official web portal to all federal, state and local government web resources and services.